Theta_e
273 272 271 271 271 271 271 271 271 272 272 272 272 272 272 272 272 272 272 272 271 272 272 272 274 278 281 286 293 294 294 294 290 292 296 298 301 315 313 319 312 317 312
272 271 270 270 270 269 269 270 271 271 271 271 271 271 270 270 270 270 270 271 270 270 271 272 273 279 281 283 291 292 292 294 293 291 295 297 297 313 313 316 314 315 314
270 269 269 269 268 268 269 269 270 270 270 269 269 269 269 270 269 270 270 270 270 271 271 271 273 276 280 281 290 290 291 293 295 293 293 297 300 312 313 311 313 313 313
268 268 267 268 268 268 268 269 269 268 268 268 268 268 268 268 269 269 270 270 270 271 272 273 273 275 278 281 283 288 289 288 289 292 291 292 294 310 311 308 307 310 309
267 267 267 267 268 268 268 268 267 267 267 267 267 266 267 267 269 269 270 271 271 271 272 273 275 277 279 281 282 284 287 286 286 285 289 292 295 306 305 308 306 306 306
266 267 267 266 267 266 266 266 265 265 265 265 265 266 267 267 271 273 273 272 273 273 273 274 275 276 278 282 283 286 287 286 284 284 286 287 303 305 306 304 304 302 298
267 265 265 265 264 264 264 263 263 263 263 265 265 265 265 266 270 273 274 274 274 274 273 273 274 276 277 279 282 285 286 290 289 286 285 285 304 307 306 303 302 301 301
265 263 263 263 262 262 262 261 262 262 263 263 263 264 264 265 270 272 274 274 274 274 274 274 274 274 276 277 279 282 284 285 286 287 287 289 293 309 307 306 303 301 303
263 262 262 262 260 260 258 260 261 262 261 261 263 263 262 263 269 272 274 272 272 274 276 274 274 274 276 279 279 279 280 282 287 289 290 292 295 305 307 305 299 297 297
261 261 261 260 258 257 259 258 261 260 262 263 262 263 263 263 269 272 273 272 270 272 275 275 276 274 277 280 279 280 279 281 284 285 286 299 302 303 302 305 302 297 298
260 260 259 259 257 257 258 259 259 260 261 260 262 264 265 266 267 271 273 271 271 271 273 275 275 277 279 280 282 280 280 284 285 285 285 299 302 302 303 304 304 301 298
258 257 256 254 255 259 256 258 259 259 259 260 262 264 265 266 269 270 272 273 274 272 272 274 276 278 280 282 283 284 285 286 285 284 284 296 299 300 301 302 303 303 304
253 252 250 254 257 257 256 257 258 259 260 261 263 263 263 266 266 269 271 273 273 272 273 274 278 280 282 282 284 286 285 285 284 284 285 296 299 301 301 301 302 301 300
252 255 257 256 256 257 258 259 258 260 260 263 262 262 262 265 265 268 269 269 271 271 272 272 274 278 281 282 283 287 285 285 285 285 289 296 299 298 298 298 298 298 295
255 257 255 254 253 256 258 257 260 262 265 264 263 263 262 263 266 270 270 268 268 271 271 271 273 275 278 281 283 285 285 285 285 286 293 293 294 295 295 296 297 295 294
254 254 253 254 254 256 256 256 262 265 267 267 268 267 265 269 270 270 270 270 270 270 265 266 271 271 280 281 283 284 284 285 286 289 293 293 293 294 293 294 295 294 294
248 252 252 253 253 253 253 254 253 257 263 264 265 267 269 268 269 269 268 267 268 265 261 262 263 265 267 270 274 284 284 286 289 292 292 293 293 293 292 292 292 293 293
243 251 249 250 250 251 251 252 253 252 252 254 260 264 267 267 267 267 267 263 259 261 259 261 262 263 266 267 268 270 272 287 290 292 292 292 291 291 291 291 291 292 292
249 248 246 247 248 249 250 250 251 251 252 253 254 258 262 264 264 264 264 257 257 258 259 261 263 263 264 266 266 267 269 270 289 291 291 290 290 291 290 291 292 292 291
245 251 248 244 246 247 249 249 250 250 251 251 253 253 260 256 255 256 257 257 257 258 260 260 263 264 264 266 265 265 266 268 285 291 290 290 290 291 291 290 291 291 290
245 244 248 244 244 244 244 246 248 248 249 250 252 254 265 255 254 255 256 256 256 258 259 260 263 264 264 265 266 264 264 266 268 285 289 290 290 289 291 292 291 291 291
245 243 242 241 246 247 245 246 246 247 248 249 250 253 260 254 254 255 255 256 257 258 260 261 262 264 265 265 266 265 263 264 265 267 272 289 289 290 290 290 290 291 290
248 247 245 244 244 246 246 244 246 247 248 247 249 251 252 253 253 254 254 256 257 258 260 261 262 263 265 266 266 267 264 263 265 267 268 274 289 289 289 289 289 289 289
247 246 246 243 243 243 243 243 246 246 247 247 248 249 250 251 253 253 254 255 256 258 260 261 262 262 265 265 266 268 268 266 265 267 268 272 286 288 289 289 289 289 289
243 245 244 242 238 240 241 242 245 241 243 247 247 248 249 250 252 253 254 254 256 257 259 260 262 263 264 266 266 266 269 266 265 266 267 268 270 273 282 286 287 288 289
244 244 242 242 241 239 239 241 240 243 242 246 246 247 249 249 251 252 253 253 254 256 258 260 262 262 263 266 266 267 269 269 266 265 266 266 266 267 269 271 277 282 285
Wind_Speed
3 4 6 6 7 8 9 11 11 13 14 15 16 17 17 16 16 16 17 18 18 17 17 18 19 19 14 15 9 10 11 12 14 11 13 15 24 14 18 21 23 22 17
4 5 6 6 7 9 10 11 12 14 15 16 16 17 18 17 17 17 18 17 18 18 18 18 18 14 17 16 11 11 12 12 13 16 12 14 19 20 21 23 21 19 23
4 4 6 7 8 9 11 12 13 14 15 16 17 17 18 18 18 17 18 18 18 18 18 19 17 19 16 12 11 10 10 10 13 12 14 12 19 17 21 17 19 22 20
3 3 5 7 8 10 11 12 13 13 15 16 16 17 18 19 19 19 20 19 18 18 18 18 19 20 17 15 13 11 10 9 10 10 10 10 14 18 15 18 15 17 19
1 3 5 7 9 10 11 12 13 13 14 16 18 17 17 17 14 18 19 19 18 19 18 18 18 20 27 25 12 12 8 7 8 9 13 13 17 18 19 17 18 17 18
3 5 7 9 9 11 12 13 14 14 14 16 17 17 18 14 28 31 27 18 19 19 18 18 17 21 23 30 30 29 23 10 13 9 13 15 25 20 16 18 17 18 18
4 5 7 8 9 11 12 12 13 14 15 16 17 17 18 19 31 32 31 18 18 17 18 18 16 14 19 16 21 27 25 20 22 15 16 19 17 23 23 22 20 21 18
3 4 6 9 9 12 11 12 13 13 15 16 17 17 18 17 31 32 31 19 17 20 20 20 18 18 18 17 15 14 14 15 15 12 15 19 25 25 28 28 27 22 16
4 6 7 8 9 11 11 13 13 14 15 15 15 17 18 19 31 32 28 16 18 19 18 19 17 18 24 29 18 17 17 18 15 25 31 42 44 32 28 21 19 20 17
5 7 9 9 8 10 12 13 13 13 15 14 17 16 19 20 27 32 26 13 15 15 17 17 22 19 28 28 17 14 16 15 12 17 20 23 28 28 38 29 24 23 18
4 6 7 8 9 10 11 12 12 13 13 15 17 15 16 17 20 31 31 16 12 13 14 11 10 23 26 30 31 16 17 12 14 14 16 14 17 20 20 22 28 24 22
4 5 6 7 7 8 10 12 12 12 13 14 15 14 12 17 21 27 30 28 25 14 13 12 11 23 25 25 21 25 26 23 11 11 12 12 14 15 18 20 24 22 23
4 4 3 7 7 8 10 11 10 10 11 13 13 14 15 14 14 29 29 31 29 18 12 18 28 25 26 23 28 28 23 10 9 10 11 12 14 14 17 20 21 21 17
3 4 4 6 9 9 7 7 8 10 10 12 13 14 15 15 15 15 14 15 21 18 19 13 17 21 24 18 12 12 6 5 7 8 11 11 12 13 11 12 14 15 13
3 4 4 4 5 8 8 7 8 9 13 12 12 13 16 17 17 29 27 17 14 18 22 11 10 8 9 9 10 7 4 6 8 9 11 10 11 12 12 13 14 12 13
5 5 4 4 5 6 6 10 14 17 22 22 25 22 14 28 34 34 34 29 27 29 12 10 8 9 8 6 5 6 8 9 8 10 8 11 13 13 13 12 13 14 16
5 3 3 5 5 6 6 6 8 13 21 21 25 29 32 32 33 34 34 29 28 23 12 12 11 10 10 10 9 7 8 7 9 8 8 11 13 13 16 13 13 14 14
4 3 2 3 4 5 6 6 6 8 11 13 18 25 30 33 32 33 34 23 16 18 13 12 12 12 11 11 10 9 9 7 8 8 9 10 12 13 14 14 14 16 14
4 3 1 2 2 5 5 5 5 7 8 9 12 18 20 30 29 29 31 13 14 14 14 13 13 12 12 11 10 9 9 9 9 8 10 10 11 13 14 15 15 19 16
3 3 3 2 3 4 4 5 6 7 8 9 10 13 13 15 16 16 15 14 14 13 14 15 14 14 13 13 12 11 10 9 10 9 10 11 10 12 14 15 14 16 14
3 2 3 2 2 2 2 4 5 5 6 8 9 11 28 11 12 13 14 14 14 14 14 14 14 14 14 13 12 11 11 10 10 7 8 11 12 11 11 13 15 15 14
3 3 2 1 2 3 3 3 4 5 5 7 9 10 25 10 11 12 13 13 13 13 12 13 14 14 14 14 13 13 12 11 11 9 9 8 11 12 11 12 13 13 14
4 4 2 1 2 3 3 3 4 5 6 6 7 9 10 10 10 12 13 13 13 14 14 13 14 14 15 15 15 13 13 13 11 9 9 8 9 11 11 11 12 12 13
4 3 3 2 2 2 2 3 4 5 6 6 7 8 9 10 11 12 12 12 13 13 13 13 15 20 19 19 17 16 14 14 10 9 11 8 2 9 10 11 12 15 13
4 4 3 3 2 1 2 3 4 3 4 6 7 7 8 9 10 11 11 12 12 13 15 15 14 21 21 27 27 28 25 24 21 17 11 13 13 12 4 5 8 9 11
3 4 3 2 2 0 2 2 2 3 4 5 6 7 8 8 9 10 10 12 12 13 16 13 17 23 23 20 26 30 29 29 24 26 15 14 14 12 9 9 6 3 8
Wind_Direction
269 280 268 279 284 287 288 291 290 291 293 292 291 292 289 288 286 280 275 275 271 271 269 265 264 262 263 277 231 251 239 244 242 250 252 262 284 169 175 163 156 150 145
253 258 284 291 297 296 295 295 297 294 293 292 294 296 295 292 288 282 279 276 273 271 270 269 272 272 264 278 242 243 246 244 254 252 244 251 265 181 183 168 166 163 154
264 277 295 302 302 295 294 295 298 294 294 297 298 294 293 290 287 282 277 274 271 269 268 267 268 268 262 264 260 241 248 264 247 242 255 269 272 163 178 159 168 162 155
250 301 300 297 300 294 298 298 297 297 300 299 296 294 293 291 289 288 285 279 274 269 267 266 263 260 261 264 273 247 245 264 269 255 247 266 267 175 170 161 160 156 151
332 295 288 305 302 303 303 296 299 304 302 299 299 297 294 288 286 284 276 274 270 266 261 260 263 267 260 256 258 275 234 237 261 275 245 271 236 179 171 163 159 150 155
321 323 318 308 307 304 303 308 312 308 305 302 299 300 302 296 295 295 291 283 276 274 274 268 263 261 266 260 258 257 261 248 250 254 265 267 224 166 161 152 151 153 149
331 314 302 309 306 308 313 314 313 310 306 306 306 306 301 297 298 296 294 286 283 269 265 268 266 260 258 261 261 261 260 254 242 255 258 250 220 164 159 155 155 157 156
320 302 308 311 311 320 318 318 312 309 312 311 305 303 307 303 303 302 298 287 281 273 256 253 256 259 258 259 259 259 249 244 248 257 257 266 264 169 165 163 164 157 155
334 323 315 318 319 319 319 313 314 313 310 302 302 309 306 301 305 304 307 307 291 296 267 251 247 250 255 255 254 253 262 265 282 276 273 265 246 172 166 149 156 154 160
326 328 331 328 319 312 309 310 313 305 305 307 305 302 302 297 302 313 309 292 307 300 292 257 245 247 251 255 248 249 254 264 276 283 287 237 198 166 167 163 158 163 161
330 334 336 328 313 297 304 310 305 306 309 303 304 307 313 307 309 309 317 303 295 296 287 285 247 250 253 241 241 237 248 262 269 281 291 207 177 168 165 163 164 163 164
3 341 333 310 305 311 306 305 307 309 311 312 312 324 322 314 310 320 315 312 302 296 299 297 266 258 257 249 243 244 244 248 255 264 277 207 170 175 164 164 166 173 176
26 332 315 307 314 317 307 311 315 316 316 316 326 328 327 318 322 313 310 318 315 303 290 285 284 278 263 257 251 250 225 217 230 248 267 200 166 170 165 162 170 171 168
24 18 350 341 327 322 309 316 315 319 321 328 331 331 327 327 322 315 323 318 312 305 293 280 271 271 279 242 256 222 192 202 235 244 255 194 160 166 159 160 164 162 152
69 37 5 337 321 312 317 315 324 319 330 336 335 332 326 330 327 336 336 332 321 317 314 291 278 262 259 223 230 219 192 219 236 238 229 179 159 164 160 163 163 156 162
69 32 6 338 324 323 318 317 332 344 346 345 346 345 330 339 339 344 348 349 348 352 353 1 355 339 272 236 247 222 217 220 234 239 190 176 166 166 159 164 160 170 162
94 48 8 339 325 325 322 320 328 334 346 349 349 349 347 352 352 355 0 3 3 9 12 4 356 346 346 337 336 255 217 217 241 226 178 182 166 166 160 164 165 168 165
104 61 50 316 322 310 306 321 322 340 337 336 343 346 354 359 360 3 7 359 6 12 3 359 355 350 347 342 326 314 327 268 240 209 182 183 172 164 166 169 170 169 162
91 74 27 309 290 297 303 321 326 345 339 335 332 341 351 356 360 5 6 10 0 359 359 353 357 353 342 337 328 321 315 302 265 201 181 178 177 171 171 171 172 175 162
87 58 27 336 325 325 341 344 349 353 348 344 341 337 347 351 359 357 358 357 358 359 356 348 354 353 347 342 342 335 330 326 283 191 185 179 177 179 174 171 173 173 178
105 89 44 16 346 310 315 335 334 341 349 341 333 332 4 355 347 351 350 354 351 350 354 352 351 355 354 344 347 344 340 336 322 291 175 184 178 181 179 177 175 179 176
120 111 83 30 320 349 350 335 342 344 344 341 334 337 353 352 350 349 347 349 349 345 348 354 352 357 355 350 350 355 345 338 328 335 337 199 180 182 176 178 180 178 176
119 114 82 23 4 348 349 348 3 360 344 335 339 340 343 346 347 347 342 342 345 346 349 352 355 352 1 359 356 2 357 343 326 325 318 302 197 184 180 180 179 182 179
127 135 131 110 30 32 331 18 358 1 350 337 342 341 340 337 340 343 342 340 340 343 349 350 356 350 359 5 3 1 9 356 345 336 339 332 201 186 187 185 185 186 183
132 127 114 119 86 28 6 15 14 352 348 338 339 340 336 337 338 341 340 339 339 342 347 350 356 352 351 5 7 6 9 12 15 11 12 19 28 28 29 178 179 184 180
139 141 138 128 141 134 49 29 360 345 348 343 334 332 330 333 333 334 338 339 339 338 341 346 351 354 353 10 8 10 7 21 20 21 27 31 34 30 26 25 45 131 165